OK1VCF-8 Weather Reports


time (UTC)temp
C
wind
direction
speed
KPH
gust
KPH
rain 1hr
cm
rain 24hr
cm
rain mn
cm
humidity
%
barometer
mb
20260905164412 21 0 0.0 0.0 0.00 0.00 0.00 44 1021.2
20260905163653 23 0 0.0 0.0 0.00 0.00 0.00 38 1021.0
20260905162934 24 0 0.0 0.0 0.00 0.00 0.00 37 1021.0
20260905162214 24 0 0.0 0.0 0.00 0.00 0.00 37 1020.9
20260905161454 26 0 0.0 0.0 0.00 0.00 0.00 35 1020.8
20260905160734 25 0 0.0 0.0 0.00 0.00 0.00 36 1020.6
20260905160014 25 0 0.0 0.0 0.00 0.00 0.00 36 1020.6
20260905155256 25 0 0.0 0.0 0.00 0.00 0.00 37 1020.6
20260905154536 23 0 0.0 0.0 0.00 0.00 0.00 40 1020.4
20260905153818 23 0 0.0 0.0 0.00 0.00 0.00 40 1020.4
20260905153059 25 0 0.0 0.0 0.00 0.00 0.00 36 1020.4
20260905152341 24 0 0.0 0.0 0.00 0.00 0.00 38 1020.4
20260905151621 25 0 0.0 0.0 0.00 0.00 0.00 36 1020.4
20260905150903 23 0 0.0 0.0 0.00 0.00 0.00 39 1020.2
20260905150143 23 0 0.0 0.0 0.00 0.00 0.00 40 1020.4
20260905145137 23 0 0.0 0.0 0.00 0.00 0.00 40 1020.1
20260905144418 23 0 0.0 0.0 0.00 0.00 0.00 40 1020.3
20260905143659 23 0 0.0 0.0 0.00 0.00 0.00 41 1020.2
20260905142939 23 0 0.0 0.0 0.00 0.00 0.00 40 1020.2
20260905142220 23 0 0.0 0.0 0.00 0.00 0.00 40 1020.2
20260905140033 23 0 0.0 0.0 0.00 0.00 0.00 41 1020.3
20260905133853 22 0 0.0 0.0 0.00 0.00 0.00 42 1020.3
20260905133132 22 0 0.0 0.0 0.00 0.00 0.00 43 1020.2
20260905132412 22 0 0.0 0.0 0.00 0.00 0.00 44 1020.2
20260905131655 22 0 0.0 0.0 0.00 0.00 0.00 44 1020.4
20260905130935 22 0 0.0 0.0 0.00 0.00 0.00 44 1020.2
20260905125928 22 0 0.0 0.0 0.00 0.00 0.00 44 1020.4
20260905125154 22 0 0.0 0.0 0.00 0.00 0.00 43 1020.4
20260905124417 22 0 0.0 0.0 0.00 0.00 0.00 42 1020.4
20260905123641 22 0 0.0 0.0 0.00 0.00 0.00 42 1020.5
20260905122905 23 0 0.0 0.0 0.00 0.00 0.00 40 1020.5
20260905122130 22 0 0.0 0.0 0.00 0.00 0.00 41 1020.6
20260905121356 22 0 0.0 0.0 0.00 0.00 0.00 40 1020.7
20260905120624 23 0 0.0 0.0 0.00 0.00 0.00 41 1020.6
20260905115852 23 0 0.0 0.0 0.00 0.00 0.00 42 1020.6
20260905115121 23 0 0.0 0.0 0.00 0.00 0.00 42 1020.7
20260905114348 23 0 0.0 0.0 0.00 0.00 0.00 42 1020.8
20260905113610 23 0 0.0 0.0 0.00 0.00 0.00 44 1020.8
20260905112836 22 0 0.0 0.0 0.00 0.00 0.00 45 1020.8
20260905112105 21 0 0.0 0.0 0.00 0.00 0.00 48 1020.8
20260905111338 21 0 0.0 0.0 0.00 0.00 0.00 48 1020.8
20260905110335 21 0 0.0 0.0 0.00 0.00 0.00 50 1021.0
20260905105613 21 0 0.0 0.0 0.00 0.00 0.00 51 1020.8
20260905104854 21 0 0.0 0.0 0.00 0.00 0.00 50 1020.8
20260905104132 22 0 0.0 0.0 0.00 0.00 0.00 50 1020.8
20260905103413 21 0 0.0 0.0 0.00 0.00 0.00 52 1020.8
20260905102654 22 0 0.0 0.0 0.00 0.00 0.00 50 1020.8
20260905101933 21 0 0.0 0.0 0.00 0.00 0.00 54 1020.8
20260905101215 21 0 0.0 0.0 0.00 0.00 0.00 52 1020.9
20260905100455 21 0 0.0 0.0 0.00 0.00 0.00 53 1020.8
20260905095735 20 0 0.0 0.0 0.00 0.00 0.00 56 1021.0
20260905095015 21 0 0.0 0.0 0.00 0.00 0.00 56 1020.8
20260905094256 21 0 0.0 0.0 0.00 0.00 0.00 56 1021.0
20260905093536 20 0 0.0 0.0 0.00 0.00 0.00 58 1021.0
20260905092816 20 0 0.0 0.0 0.00 0.00 0.00 60 1020.9
20260905092056 20 0 0.0 0.0 0.00 0.00 0.00 57 1021.0
20260905091053 20 0 0.0 0.0 0.00 0.00 0.00 58 1021.0
20260905090334 20 0 0.0 0.0 0.00 0.00 0.00 58 1021.2
20260905085614 19 0 0.0 0.0 0.00 0.00 0.00 58 1020.9
20260905084853 18 0 0.0 0.0 0.00 0.00 0.00 62 1020.9
20260905084132 18 0 0.0 0.0 0.00 0.00 0.00 62 1021.0
20260905083412 18 0 0.0 0.0 0.00 0.00 0.00 64 1021.0
20260905082651 17 0 0.0 0.0 0.00 0.00 0.00 66 1021.0
20260905081931 17 0 0.0 0.0 0.00 0.00 0.00 66 1021.0
20260905081213 17 0 0.0 0.0 0.00 0.00 0.00 70 1020.9
20260905080453 17 0 0.0 0.0 0.00 0.00 0.00 70 1020.8
20260905075731 17 0 0.0 0.0 0.00 0.00 0.00 70 1020.8
20260905075012 17 0 0.0 0.0 0.00 0.00 0.00 72 1020.6
20260905074252 16 0 0.0 0.0 0.00 0.00 0.00 72 1020.5
20260905073534 16 0 0.0 0.0 0.00 0.00 0.00 74 1020.4
20260905072814 16 0 0.0 0.0 0.00 0.00 0.00 73 1020.3
20260905071810 16 0 0.0 0.0 0.00 0.00 0.00 75 1020.2
20260905071048 16 0 0.0 0.0 0.00 0.00 0.00 76 1020.4
20260905070321 16 0 0.0 0.0 0.00 0.00 0.00 77 1020.4
20260905065552 16 0 0.0 0.0 0.00 0.00 0.00 78 1020.6
20260905064826 16 0 0.0 0.0 0.00 0.00 0.00 78 1020.4
20260905064105 16 0 0.0 0.0 0.00 0.00 0.00 80 1020.4
20260905063341 16 0 0.0 0.0 0.00 0.00 0.00 82 1020.4
20260905062615 16 0 0.0 0.0 0.00 0.00 0.00 82 1020.4
20260905061847 16 0 0.0 0.0 0.00 0.00 0.00 82 1020.3
20260905061121 15 0 0.0 0.0 0.00 0.00 0.00 85 1020.2
20260905060357 14 0 0.0 0.0 0.00 0.00 0.00 86 1020.0
20260905055634 14 0 0.0 0.0 0.00 0.00 0.00 88 1019.9
20260905054912 14 0 0.0 0.0 0.00 0.00 0.00 90 1019.8
20260905054152 14 0 0.0 0.0 0.00 0.00 0.00 90 1019.6
20260905053433 13 0 0.0 0.0 0.00 0.00 0.00 92 1019.6
20260905052429 13 0 0.0 0.0 0.00 0.00 0.00 92 1019.6
20260905051710 13 0 0.0 0.0 0.00 0.00 0.00 92 1019.5
20260905050952 13 0 0.0 0.0 0.00 0.00 0.00 92 1019.4
20260905050235 13 0 0.0 0.0 0.00 0.00 0.00 92 1019.2
20260905045517 13 0 0.0 0.0 0.00 0.00 0.00 92 1019.1
20260905044758 13 0 0.0 0.0 0.00 0.00 0.00 92 1019.0
20260905044039 13 0 0.0 0.0 0.00 0.00 0.00 92 1018.8
20260905043321 13 0 0.0 0.0 0.00 0.00 0.00 92 1018.8
20260905042603 13 0 0.0 0.0 0.00 0.00 0.00 92 1018.7
20260905041842 13 0 0.0 0.0 0.00 0.00 0.00 91 1018.4
20260905041125 13 0 0.0 0.0 0.00 0.00 0.00 91 1018.0
20260905040405 13 0 0.0 0.0 0.00 0.00 0.00 90 1017.8
20260905035644 13 0 0.0 0.0 0.00 0.00 0.00 90 1018.0
20260905034926 13 0 0.0 0.0 0.00 0.00 0.00 88 1018.1
20260905034208 13 0 0.0 0.0 0.00 0.00 0.00 87 1018.6
20260905033206 14 0 0.0 0.0 0.00 0.00 0.00 84 1018.5
20260905032447 14 0 0.0 0.0 0.00 0.00 0.00 81 1018.8
20260905031729 15 0 0.0 0.0 0.00 0.00 0.00 78 1018.6
20260905031011 15 0 0.0 0.0 0.00 0.00 0.00 76 1018.2
20260905030254 15 0 0.0 0.0 0.00 0.00 0.00 75 1018.4
20260905025534 15 0 0.0 0.0 0.00 0.00 0.00 74 1018.4
20260905024814 15 0 0.0 0.0 0.00 0.00 0.00 72 1018.6
20260905024057 15 0 0.0 0.0 0.00 0.00 0.00 74 1018.1
20260905023338 15 0 0.0 0.0 0.00 0.00 0.00 74 1017.9
20260905022618 15 0 0.0 0.0 0.00 0.00 0.00 74 1017.8
20260905021900 15 0 0.0 0.0 0.00 0.00 0.00 75 1017.5
20260905021141 15 0 0.0 0.0 0.00 0.00 0.00 77 1017.4
20260905020422 15 0 0.0 0.0 0.00 0.00 0.00 76 1017.4
20260905015704 15 0 0.0 0.0 0.00 0.00 0.00 77 1017.6
20260905014946 15 0 0.0 0.0 0.00 0.00 0.00 74 1017.4
20260905013942 15 0 0.0 0.0 0.00 0.00 0.00 70 1017.5
20260905013223 16 0 0.0 0.0 0.00 0.00 0.00 66 1017.2
20260905012503 17 0 0.0 0.0 0.00 0.00 0.00 60 1016.9
20260905011741 17 0 0.0 0.0 0.00 0.00 0.00 62 1016.8
20260905011014 18 0 0.0 0.0 0.00 0.00 0.00 64 1017.0
20260905010245 18 0 0.0 0.0 0.00 0.00 0.00 64 1017.0
20260905005516 18 0 0.0 0.0 0.00 0.00 0.00 64 1017.0
20260905004750 18 0 0.0 0.0 0.00 0.00 0.00 65 1017.0
20260905004022 18 0 0.0 0.0 0.00 0.00 0.00 64 1016.9
20260905003254 18 0 0.0 0.0 0.00 0.00 0.00 64 1016.8
20260905001058 18 0 0.0 0.0 0.00 0.00 0.00 62 1016.6
20260905000329 18 0 0.0 0.0 0.00 0.00 0.00 64 1016.6
20260904235557 18 0 0.0 0.0 0.00 0.00 0.00 66 1016.5
20260904234537 18 0 0.0 0.0 0.00 0.00 0.00 66 1016.6
20260904233803 18 0 0.0 0.0 0.00 0.00 0.00 67 1016.4
20260904233034 18 0 0.0 0.0 0.00 0.00 0.00 68 1016.3
20260904232307 18 0 0.0 0.0 0.00 0.00 0.00 69 1016.4
20260904230116 18 0 0.0 0.0 0.00 0.00 0.00 72 1015.9
20260904225358 18 0 0.0 0.0 0.00 0.00 0.00 71 1015.7
20260904224641 18 0 0.0 0.0 0.00 0.00 0.00 70 1016.0
20260904223923 18 0 0.0 0.0 0.00 0.00 0.00 70 1015.4
20260904223204 18 0 0.0 0.0 0.00 0.00 0.00 70 1015.0
20260904222446 18 0 0.0 0.0 0.00 0.00 0.00 70 1014.3
20260904221727 18 0 0.0 0.0 0.00 0.00 0.00 69 1014.2
20260904221008 18 0 0.0 0.0 0.00 0.00 0.00 69 1014.1
20260904220250 18 0 0.0 0.0 0.00 0.00 0.00 69 1013.6
20260904215245 19 0 0.0 0.0 0.00 0.00 0.00 68 1013.3
20260904214527 20 0 0.0 0.0 0.00 0.00 0.00 67 1013.0
20260904213809 20 0 0.0 0.0 0.00 0.00 0.00 66 1012.8
20260904213052 20 0 0.0 0.0 0.00 0.00 0.00 66 1012.8
20260904212333 21 0 0.0 0.0 0.00 0.00 0.00 67 1012.6
20260904211615 21 0 0.0 0.0 0.00 0.00 0.00 66 1012.6
20260904210855 22 0 0.0 0.0 0.00 0.00 0.00 63 1012.4
20260904210136 22 0 0.0 0.0 0.00 0.00 0.00 63 1012.2
20260904205417 22 0 0.0 0.0 0.00 0.00 0.00 64 1012.1
20260904204658 22 0 0.0 0.0 0.00 0.00 0.00 64 1012.0
20260904203940 22 0 0.0 0.0 0.00 0.00 0.00 62 1012.0
20260904203222 23 0 0.0 0.0 0.00 0.00 0.00 61 1012.1
20260904202503 23 0 0.0 0.0 0.00 0.00 0.00 60 1012.0
20260904201744 23 0 0.0 0.0 0.00 0.00 0.00 60 1012.0
20260904201025 23 0 0.0 0.0 0.00 0.00 0.00 60 1012.1
20260904200021 23 0 0.0 0.0 0.00 0.00 0.00 58 1012.1
20260904195305 23 0 0.0 0.0 0.00 0.00 0.00 58 1012.2
20260904194542 23 0 0.0 0.0 0.00 0.00 0.00 58 1012.2
20260904193823 24 0 0.0 0.0 0.00 0.00 0.00 58 1012.4
20260904193105 24 0 0.0 0.0 0.00 0.00 0.00 56 1012.3
20260904192343 24 0 0.0 0.0 0.00 0.00 0.00 58 1012.3
20260904191623 24 0 0.0 0.0 0.00 0.00 0.00 58 1012.3
20260904190903 24 0 0.0 0.0 0.00 0.00 0.00 58 1012.2
20260904190146 24 0 0.0 0.0 0.00 0.00 0.00 58 1012.1
20260904185425 24 0 0.0 0.0 0.00 0.00 0.00 57 1012.0
20260904184708 24 0 0.0 0.0 0.00 0.00 0.00 56 1012.0
20260904183950 24 0 0.0 0.0 0.00 0.00 0.00 56 1012.0
20260904183230 25 0 0.0 0.0 0.00 0.00 0.00 56 1012.0
20260904182509 25 0 0.0 0.0 0.00 0.00 0.00 55 1012.0
20260904181748 25 0 0.0 0.0 0.00 0.00 0.00 55 1011.9
20260904180745 25 0 0.0 0.0 0.00 0.00 0.00 54 1011.9
20260904180023 25 0 0.0 0.0 0.00 0.00 0.00 53 1011.8
20260904175306 26 0 0.0 0.0 0.00 0.00 0.00 52 1011.8
20260904174544 26 0 0.0 0.0 0.00 0.00 0.00 51 1012.0
20260904173824 26 0 0.0 0.0 0.00 0.00 0.00 50 1012.1
20260904173104 27 0 0.0 0.0 0.00 0.00 0.00 48 1012.2
20260904172343 27 0 0.0 0.0 0.00 0.00 0.00 48 1012.2
20260904171623 27 0 0.0 0.0 0.00 0.00 0.00 47 1012.2
20260904170903 27 0 0.0 0.0 0.00 0.00 0.00 46 1012.2
20260904170142 27 0 0.0 0.0 0.00 0.00 0.00 47 1012.0
20260904165420 27 0 0.0 0.0 0.00 0.00 0.00 47 1012.1